Weather History for McGuire AFB, NJ

Change the Weather History Date:

Thursday, August 14, 2014

  Actual Average Record
Temperature  
Mean Temperature 69 °F -  
Max Temperature 78 °F 83 °F 100 °F (2002)
Min Temperature 60 °F 64 °F 59 °F (1996)
Cooling Degree Days 4    
Growing Degree Days 19 (Base 50)    
Moisture  
Dew Point 57 °F    
Average Humidity 71    
Maximum Humidity 100    
Minimum Humidity 41    
Precipitation  
Precipitation 0.28 in - - ()
Sea Level Pressure  
Sea Level Pressure 29.87 in    
Wind  
Wind Speed 8 mph (West)    
Max Wind Speed 22 mph    
Max Gust Speed 30 mph    
Visibility 9 miles    
Events Rain    
Averages and records for this station are not official NWS values.
T = Trace of Precipitation, MM = Missing Value Source: NWS Daily Summary

Daily Weather History Graph

Daily Weather History Graph

Search for Another Location

Airport:

Trip Planner

Search our weather history database for the weather conditions in past years. The results will help you decide how hot, cold, wet, or windy it might be!

Date:

Astronomy

Aug. 14, 2014 Rise Set
Actual Time 6:08 AM EDT 7:56 PM EDT
Civil Twilight 5:39 AM EDT 8:25 PM EDT
Nautical Twilight 5:04 AM EDT 9:00 PM EDT
Astronomical Twilight 4:26 AM EDT 9:38 PM EDT
Moon 10:17 PM EDT (8/14) 10:42 AM EDT (8/14)
Length of Visible Light 14h 45m
Length of Day
13h 47m
Waning Gibbous, 79% of the Moon is Illuminated
Aug 14
Waning Gibbous
Aug 17
Last Quarter
Aug 25
New
Sep 2
First Quarter
Sep 8
Full

Hourly Weather History & Observations

Time (EDT) Temp. Dew Point Humidity Pressure Visibility Wind Dir Wind Speed Gust Speed Precip Events Conditions
12:58 AM 68.5 °F 57.0 °F 67% 29.82 in 10.0 mi West 11.5 mph - N/A   Clear
1:58 AM 66.7 °F 54.7 °F 65% 29.82 in 10.0 mi WNW 9.2 mph - N/A   Clear
2:58 AM 64.8 °F 53.6 °F 67% 29.82 in 10.0 mi NW 9.2 mph - N/A   Clear
3:58 AM 62.6 °F 53.8 °F 73% 29.83 in 10.0 mi WNW 5.8 mph - N/A   Clear
4:58 AM 61.3 °F 53.8 °F 76% 29.84 in 10.0 mi WNW 5.8 mph - N/A   Clear
5:58 AM 60.1 °F 53.4 °F 79% 29.86 in 10.0 mi WNW 6.9 mph - N/A   Clear
6:58 AM 60.8 °F 53.6 °F 77% 29.88 in 10.0 mi WNW 6.9 mph - N/A   Clear
7:58 AM 64.2 °F 54.0 °F 69% 29.90 in 10.0 mi WNW 8.1 mph - 0.00 in Rain Light Rain
8:02 AM 64.4 °F 53.6 °F 68% 29.89 in 10.0 mi WNW 9.2 mph - N/A   Clear
8:58 AM 66.7 °F 53.1 °F 61% 29.91 in 10.0 mi WNW 9.2 mph - 0.00 in   Clear
9:59 AM 69.1 °F 53.4 °F 57% 29.91 in 10.0 mi NNW 8.1 mph - N/A   Clear
10:58 AM 71.6 °F 52.5 °F 51% 29.91 in 10.0 mi WNW 4.6 mph - N/A   Clear
11:58 AM 73.4 °F 51.8 °F 47% 29.90 in 10.0 mi Variable 5.8 mph - N/A Rain Light Rain
12:20 PM 73.4 °F 51.8 °F 47% 29.89 in 10.0 mi WSW 9.2 mph - N/A   Clear
12:58 PM 74.7 °F 50.9 °F 43% 29.89 in 10.0 mi WNW 6.9 mph - 0.00 in Rain Light Rain
12:59 PM 75.2 °F 50.0 °F 41% 29.88 in 10.0 mi WNW 6.9 mph - N/A   Clear
1:58 PM 77.2 °F 52.7 °F 42% 29.87 in 10.0 mi West 8.1 mph - 0.00 in   Partly Cloudy
2:58 PM 75.7 °F 51.6 °F 43% 29.86 in 10.0 mi West 11.5 mph 18.4 mph N/A   Scattered Clouds
3:58 PM 77.9 °F 53.1 °F 42% 29.85 in 10.0 mi West 11.5 mph - N/A   Clear
4:58 PM 78.3 °F 54.0 °F 43% 29.84 in 10.0 mi WSW 10.4 mph - N/A   Clear
5:58 PM 76.8 °F 54.3 °F 46% 29.83 in 10.0 mi West 13.8 mph - N/A   Clear
6:58 PM 74.3 °F 56.5 °F 54% 29.84 in 10.0 mi SSW 8.1 mph - N/A   Partly Cloudy
7:58 PM 69.8 °F 57.6 °F 65% 29.84 in 10.0 mi SSW 5.8 mph - N/A   Overcast
8:31 PM 69.8 °F 59.0 °F 68% 29.85 in 10.0 mi North 4.6 mph - N/A Rain Light Rain
8:36 PM 68.0 °F 59.0 °F 73% 29.86 in 8.0 mi NW 21.9 mph 29.9 mph N/A Rain Light Rain
8:39 PM 68.0 °F 60.8 °F 78% 29.86 in 4.0 mi NNW 17.3 mph 29.9 mph N/A Rain Heavy Rain
8:44 PM 66.2 °F 60.8 °F 83% 29.87 in 3.0 mi NNW 13.8 mph 29.9 mph N/A Rain Heavy Rain
8:49 PM 64.4 °F 60.8 °F 88% 29.88 in 4.0 mi NNW 10.4 mph - N/A Rain Heavy Rain
8:58 PM 63.9 °F 61.7 °F 93% 29.90 in 4.0 mi NNW 6.9 mph - 0.15 in Rain Heavy Rain
9:03 PM 62.6 °F 60.8 °F 94% 29.89 in 2.5 mi WNW 4.6 mph - N/A Rain Heavy Rain
9:08 PM 62.6 °F 60.8 °F 94% 29.89 in 3.0 mi West 3.5 mph - N/A Rain Heavy Rain
9:13 PM 62.6 °F 60.8 °F 94% 29.88 in 5.0 mi Variable 2.3 mph - N/A Rain Rain
9:18 PM 62.6 °F 60.8 °F 94% 29.88 in 5.0 mi South 4.6 mph - N/A Rain Light Rain
9:23 PM 62.6 °F 60.8 °F 94% 29.88 in 8.0 mi South 4.6 mph - N/A Rain Light Rain
9:28 PM 62.6 °F 60.8 °F 94% 29.88 in 10.0 mi South 4.6 mph - N/A Rain Light Rain
9:58 PM 63.1 °F 62.8 °F 99% 29.87 in 10.0 mi SE 4.6 mph - 0.13 in Rain Light Rain
10:03 PM 62.6 °F 62.6 °F 100% 29.87 in 10.0 mi ESE 3.5 mph - N/A   Overcast
10:58 PM 62.1 °F 61.9 °F 99% 29.89 in 10.0 mi SSW 3.5 mph - 0.00 in   Partly Cloudy
11:58 PM 60.8 °F 60.8 °F 100% 29.89 in 10.0 mi WNW 4.6 mph - N/A   Clear